Wind_Speed
49 49 48 47 46 44 42 40 38 36 34 33 32 31 31 31 32 32 32 31 30 29 29 29 30 31 32 33 34 34 34 34 34 33 33 32 31 31 30 29 29 28 30
54 55 54 54 52 49 47 45 42 39 37 35 33 32 32 31 31 32 32 31 29 28 28 27 28 28 29 30 31 32 32 32 31 32 31 31 29 29 29 29 27 27 27
59 60 59 58 57 55 52 50 47 44 41 38 36 34 33 33 32 32 32 31 30 28 27 26 25 25 27 28 28 29 29 29 30 30 30 29 28 27 28 27 27 27 27
64 64 64 64 63 62 59 56 53 50 46 42 39 37 35 34 33 33 32 31 30 28 26 25 23 23 24 25 26 26 26 26 27 27 27 27 27 27 28 28 27 25 24
69 70 70 70 69 67 64 62 58 54 51 47 44 41 39 37 36 34 33 32 30 28 26 24 23 22 22 23 24 25 25 25 26 27 28 29 28 27 27 26 25 24 23
76 76 76 76 75 72 70 67 63 59 54 51 48 46 43 41 38 36 35 33 30 28 25 24 22 22 23 24 25 24 25 25 26 27 28 28 27 26 25 23 23 22 21
83 82 82 82 80 77 75 71 68 63 59 54 51 48 46 43 41 38 36 33 31 27 25 23 23 22 22 23 25 24 24 25 25 25 25 25 24 22 20 20 18 17 15
77 77 78 79 78 76 74 71 68 65 60 56 53 50 47 45 42 39 37 33 30 27 24 22 22 23 22 22 22 24 25 24 24 24 24 23 21 19 17 16 14 13 13
56 58 59 60 61 62 63 63 61 60 57 55 52 50 47 44 42 39 36 33 29 26 25 23 22 23 24 23 22 23 24 25 23 22 21 19 17 15 14 13 13 12 12
40 39 40 40 41 42 44 46 47 49 49 49 47 46 44 42 40 38 35 32 29 26 24 22 22 22 22 22 21 22 23 22 21 19 18 16 15 14 12 12 12 11 10
34 33 32 31 30 30 31 33 35 37 41 43 42 42 42 40 39 37 33 30 28 25 23 21 21 22 22 21 21 21 20 19 18 17 16 15 14 13 12 11 10 9 8
32 30 28 26 26 25 25 27 28 30 33 39 41 40 41 39 38 36 32 30 27 24 22 21 21 21 21 21 20 20 19 18 17 16 15 14 13 12 11 10 9 8 8
32 30 28 27 26 26 25 25 26 28 30 34 40 40 39 38 37 35 32 30 27 24 23 22 21 21 20 19 19 19 19 18 17 16 14 13 13 12 12 11 10 9 8
34 31 29 28 26 26 25 26 27 28 30 31 37 42 40 36 35 34 32 29 27 25 24 23 23 22 21 20 20 20 19 18 17 15 14 14 13 13 12 11 10 9 8
36 34 32 30 29 28 26 26 27 29 31 31 33 39 40 36 35 34 31 29 27 26 25 25 24 23 22 21 21 20 19 18 17 16 15 14 14 13 12 11 11 10 8
37 35 33 31 29 28 28 27 27 28 30 33 33 36 40 39 37 35 33 31 30 28 26 26 25 24 23 22 21 20 19 18 17 16 15 15 14 14 13 12 12 10 9
37 34 32 29 28 28 27 27 27 28 29 31 34 37 40 40 39 37 34 33 31 29 28 27 26 24 23 22 21 20 19 18 17 17 16 15 15 15 14 14 13 12 11
34 31 29 27 26 25 24 24 24 24 26 29 34 38 41 41 40 38 36 34 31 30 29 28 26 24 23 22 21 20 19 18 18 17 17 16 16 16 15 14 14 13 13
27 25 24 24 23 22 21 21 22 23 25 29 35 39 43 43 41 39 36 34 32 31 29 27 26 24 23 21 20 19 18 18 17 17 17 17 17 16 16 16 15 15 15
21 20 19 19 20 19 19 20 21 24 27 32 37 41 44 42 40 39 37 36 34 33 30 28 26 24 22 20 19 18 17 17 17 17 17 17 17 18 18 17 17 17 17
15 15 17 17 18 18 19 20 22 26 32 36 39 42 42 39 37 36 35 34 33 31 29 27 24 23 21 19 18 17 16 16 16 17 17 17 18 18 19 19 20 19 19
9 12 15 17 17 18 20 22 26 31 36 39 42 44 41 39 37 35 34 32 31 29 28 26 23 21 20 18 17 16 15 16 17 17 18 18 19 19 20 20 21 21 22
9 13 16 17 18 20 24 28 31 36 39 41 44 41 40 39 38 35 33 31 29 27 26 24 22 20 18 17 16 15 15 16 16 17 18 19 19 20 20 20 21 22 22
15 18 20 21 23 27 30 31 34 37 41 43 41 39 38 37 36 33 31 29 27 25 23 22 20 18 17 16 15 15 15 16 16 17 18 19 19 20 20 21 21 22 23
20 22 24 28 31 32 31 33 36 38 41 40 39 38 36 35 33 30 28 26 25 23 21 20 17 16 15 15 15 15 15 16 16 17 18 18 19 19 20 21 22 22 23
25 28 31 32 31 32 32 33 35 36 37 38 37 35 33 32 30 27 26 24 22 21 19 17 15 14 14 14 14 15 15 16 16 16 17 18 18 19 20 21 22 22 23
Wind_Direction
275 276 278 279 279 279 280 280 281 282 284 287 288 291 295 300 303 306 307 306 302 296 289 281 274 269 264 261 259 259 259 259 259 259 258 257 255 253 252 254 254 254 253
276 276 277 278 278 278 279 279 279 280 282 284 286 287 290 295 300 303 305 304 302 297 290 283 276 268 262 258 256 255 255 255 255 253 252 251 250 249 250 252 253 252 255
276 276 276 276 275 276 277 277 278 279 279 281 283 284 286 290 295 298 301 301 300 297 291 284 276 267 262 257 254 253 251 250 249 248 247 244 244 244 246 249 251 254 256
275 274 274 274 274 275 274 275 275 276 275 277 280 281 282 285 289 293 296 298 296 294 289 283 275 266 260 256 252 248 245 243 241 241 241 240 241 244 246 248 250 250 252
274 273 273 273 272 272 272 271 272 272 272 273 276 277 279 281 284 287 290 293 292 289 285 279 271 262 258 252 248 243 241 240 239 240 240 241 241 242 243 245 246 250 253
273 273 272 272 271 271 271 271 272 272 271 271 272 273 274 276 278 280 284 286 286 283 278 272 266 258 251 248 244 242 241 238 237 238 237 240 242 243 242 243 246 247 248
274 273 273 273 271 270 270 270 270 269 268 268 268 268 269 270 272 274 276 278 279 275 271 265 258 255 248 246 243 240 238 236 236 234 235 240 240 239 238 239 238 239 241
277 275 274 272 271 270 269 268 267 265 263 262 262 262 263 264 265 266 267 269 270 268 265 259 254 251 248 242 239 239 234 234 235 234 233 234 231 230 230 230 230 233 237
283 280 277 274 271 269 267 265 262 259 257 255 254 255 255 256 257 257 259 260 261 260 258 254 248 246 239 235 235 234 234 234 234 229 226 224 221 221 221 225 227 228 230
291 287 283 279 274 269 265 261 257 253 248 245 243 243 244 245 247 249 250 251 251 250 248 245 240 236 232 233 231 232 229 225 222 218 215 213 213 214 216 219 221 222 227
296 292 286 281 276 270 263 258 253 249 242 235 231 231 231 233 236 238 241 242 242 240 238 235 232 228 228 227 223 219 216 212 210 207 204 202 203 204 206 208 212 217 222
297 293 288 282 277 272 263 255 251 247 239 230 223 221 220 224 227 230 232 234 231 230 229 225 221 218 218 215 209 206 205 201 199 197 195 194 196 197 199 202 207 211 213
295 292 286 280 276 270 264 257 251 245 240 234 225 217 213 219 220 221 224 224 220 220 219 215 212 209 206 201 197 195 193 191 191 190 189 190 191 192 195 198 200 203 208
292 288 284 279 273 268 264 257 250 245 240 234 225 216 212 210 212 214 216 216 213 212 209 206 202 200 196 192 190 189 187 186 185 187 188 189 190 192 194 197 200 202 206
289 285 280 275 270 265 263 258 250 245 239 231 224 218 209 203 204 207 207 205 204 203 200 197 194 191 190 189 188 187 186 186 187 189 191 192 192 195 198 200 202 205 212
285 282 277 272 266 262 259 256 250 243 234 228 224 218 205 199 198 198 197 196 195 193 192 190 188 187 187 187 186 187 188 190 191 193 194 196 197 199 202 204 207 214 223
283 278 273 267 262 259 256 252 245 238 228 223 218 208 198 194 193 191 190 190 190 188 185 184 184 185 186 187 188 190 192 194 195 197 198 201 203 206 209 213 218 226 236
280 274 266 259 256 254 250 243 234 225 218 211 205 197 190 188 188 186 186 187 186 184 182 182 183 185 187 189 191 193 195 197 199 201 203 206 210 213 218 223 230 238 248
277 268 258 251 247 242 235 226 219 211 203 199 195 188 183 184 184 183 183 182 181 181 181 181 183 185 188 190 193 196 198 201 203 206 210 214 218 223 228 234 241 249 259
270 257 247 238 230 225 219 212 205 198 194 189 184 180 179 181 181 180 179 179 179 179 180 182 184 186 188 191 195 198 202 205 209 213 218 223 228 233 238 244 251 258 267
259 242 229 218 212 206 202 197 191 184 178 176 174 172 172 175 175 176 177 177 178 178 180 181 183 186 189 192 196 201 206 211 216 221 226 232 237 242 247 253 259 266 273
231 211 199 192 187 184 181 175 168 167 166 167 165 164 166 168 171 173 175 176 176 177 179 181 184 187 190 194 200 207 213 219 224 230 235 240 245 251 256 261 266 271 277
168 166 169 170 168 166 163 158 157 159 161 161 162 163 164 166 168 170 173 175 176 177 179 182 185 189 194 200 206 213 220 226 232 238 243 248 253 258 262 266 271 275 280
141 146 148 148 148 147 149 151 154 158 160 161 162 163 164 165 167 169 173 174 176 177 179 182 186 191 197 203 210 218 225 232 238 244 248 253 258 263 266 270 274 278 282
130 134 134 135 136 139 144 149 153 156 158 159 160 161 162 164 167 170 172 174 176 178 181 184 189 196 203 209 215 222 229 235 240 246 251 256 261 266 269 273 277 281 285
121 125 128 130 133 138 142 147 150 153 157 159 160 161 162 164 166 169 172 175 178 181 185 190 196 203 209 215 221 227 232 237 242 248 253 258 263 267 272 276 280 284 287
Height
5769 5767 5765 5763 5762 5760 5759 5758 5756 5755 5753 5751 5749 5747 5744 5741 5738 5734 5731 5727 5724 5722 5719 5718 5717 5717 5718 5719 5721 5723 5724 5726 5727 5729 5730 5732 5734 5736 5738 5740 5741 5742 5744
5754 5751 5749 5748 5746 5745 5745 5744 5743 5742 5741 5740 5738 5736 5734 5732 5729 5726 5723 5720 5717 5714 5712 5710 5709 5709 5709 5711 5712 5714 5716 5717 5719 5721 5723 5724 5726 5728 5730 5732 5734 5736 5737
5736 5734 5732 5730 5729 5729 5728 5728 5729 5728 5728 5727 5727 5726 5724 5722 5720 5718 5715 5712 5709 5707 5705 5703 5702 5701 5702 5703 5704 5706 5708 5710 5712 5714 5715 5717 5719 5722 5724 5725 5727 5729 5730
5718 5715 5713 5711 5710 5710 5710 5711 5712 5713 5713 5714 5714 5714 5713 5712 5711 5709 5707 5704 5702 5700 5698 5696 5695 5694 5695 5696 5697 5699 5701 5703 5705 5707 5709 5711 5713 5715 5717 5719 5721 5723 5724
5697 5694 5692 5691 5689 5689 5691 5692 5693 5695 5697 5698 5700 5701 5701 5701 5700 5699 5698 5696 5694 5692 5690 5689 5688 5688 5688 5689 5691 5692 5694 5697 5699 5701 5703 5705 5707 5709 5711 5713 5715 5717 5718
5674 5671 5669 5667 5667 5668 5669 5671 5673 5676 5679 5682 5684 5686 5688 5689 5689 5689 5688 5687 5686 5684 5683 5682 5682 5681 5682 5683 5684 5686 5688 5691 5693 5695 5698 5700 5701 5703 5705 5707 5710 5711 5713
5647 5644 5642 5641 5642 5643 5645 5648 5651 5655 5659 5663 5667 5670 5673 5675 5677 5678 5678 5678 5677 5676 5676 5675 5675 5675 5676 5677 5678 5680 5682 5685 5688 5690 5692 5694 5696 5698 5700 5703 5705 5707 5709
5616 5614 5613 5613 5614 5616 5619 5622 5627 5633 5638 5644 5649 5653 5657 5661 5664 5666 5667 5668 5668 5668 5668 5668 5668 5669 5670 5671 5673 5675 5677 5679 5682 5685 5687 5690 5692 5694 5696 5699 5701 5703 5705
5591 5589 5588 5587 5589 5590 5593 5597 5603 5609 5616 5623 5629 5636 5641 5646 5650 5653 5655 5657 5658 5659 5660 5660 5661 5662 5664 5666 5668 5670 5672 5675 5677 5680 5682 5685 5688 5690 5693 5695 5697 5700 5701
5576 5574 5571 5570 5571 5572 5574 5577 5582 5587 5595 5602 5610 5618 5625 5631 5636 5641 5644 5647 5649 5651 5652 5653 5655 5656 5658 5660 5663 5665 5668 5670 5673 5676 5679 5682 5685 5687 5690 5692 5695 5697 5698
5566 5563 5561 5559 5559 5560 5561 5564 5567 5571 5577 5585 5593 5601 5609 5617 5623 5628 5633 5638 5640 5642 5644 5646 5648 5650 5653 5656 5658 5661 5664 5667 5670 5673 5676 5679 5682 5685 5687 5690 5692 5694 5696
5556 5553 5552 5550 5550 5550 5551 5554 5556 5560 5565 5571 5579 5586 5595 5604 5611 5617 5623 5628 5632 5635 5638 5640 5643 5646 5649 5652 5655 5658 5662 5665 5668 5671 5674 5677 5680 5683 5685 5687 5690 5692 5693
5546 5544 5543 5542 5541 5542 5543 5545 5547 5550 5554 5560 5566 5574 5583 5592 5599 5607 5614 5620 5624 5628 5632 5635 5639 5642 5646 5649 5652 5656 5660 5663 5666 5669 5673 5676 5678 5681 5683 5686 5688 5689 5691
5536 5534 5532 5532 5532 5532 5533 5535 5538 5541 5545 5550 5555 5563 5572 5581 5591 5599 5606 5612 5617 5622 5626 5631 5635 5639 5643 5647 5651 5655 5658 5662 5665 5668 5671 5674 5677 5679 5682 5684 5686 5687 5689
5523 5521 5521 5521 5521 5522 5523 5525 5528 5531 5535 5540 5546 5553 5563 5573 5583 5592 5599 5606 5612 5618 5622 5627 5632 5636 5641 5645 5650 5653 5657 5660 5664 5667 5670 5672 5675 5677 5680 5682 5684 5685 5687
5509 5508 5507 5508 5509 5510 5512 5514 5517 5521 5525 5531 5537 5545 5554 5565 5574 5584 5592 5600 5606 5613 5618 5624 5629 5634 5639 5644 5648 5652 5656 5659 5662 5665 5668 5670 5673 5675 5678 5680 5681 5683 5684
5493 5493 5494 5495 5497 5499 5501 5503 5507 5511 5515 5522 5529 5537 5547 5558 5569 5578 5587 5595 5602 5609 5615 5622 5627 5633 5638 5642 5647 5650 5654 5657 5661 5663 5666 5669 5671 5673 5676 5677 5679 5680 5681
5478 5479 5480 5482 5485 5488 5491 5493 5498 5502 5508 5514 5522 5531 5543 5554 5565 5575 5583 5591 5599 5606 5613 5620 5626 5631 5636 5641 5645 5649 5652 5656 5659 5661 5664 5667 5669 5671 5673 5675 5676 5677 5677
5464 5465 5468 5471 5475 5479 5482 5486 5491 5496 5503 5510 5519 5528 5540 5551 5562 5572 5581 5589 5598 5605 5612 5619 5624 5630 5635 5640 5644 5647 5651 5654 5657 5659 5662 5664 5667 5668 5670 5671 5672 5673 5673
5453 5455 5458 5462 5467 5472 5476 5482 5487 5493 5500 5508 5517 5528 5539 5550 5560 5570 5579 5588 5596 5603 5611 5617 5623 5628 5633 5638 5642 5645 5649 5652 5654 5657 5660 5662 5664 5665 5666 5667 5668 5668 5668
5444 5447 5451 5456 5462 5467 5473 5479 5484 5491 5499 5508 5518 5529 5542 5553 5564 5573 5581 5589 5596 5604 5610 5616 5622 5627 5632 5636 5640 5643 5646 5649 5652 5654 5657 5658 5660 5661 5662 5662 5663 5662 5662
5439 5443 5448 5454 5460 5466 5472 5478 5484 5492 5502 5511 5522 5533 5544 5554 5565 5574 5582 5590 5597 5604 5610 5616 5621 5626 5630 5634 5638 5641 5644 5647 5649 5651 5653 5654 5655 5656 5657 5657 5657 5656 5656
5439 5443 5449 5455 5461 5467 5474 5481 5489 5498 5507 5517 5528 5537 5547 5557 5566 5575 5583 5591 5598 5604 5610 5615 5620 5625 5629 5632 5635 5638 5641 5643 5645 5647 5649 5650 5651 5651 5651 5651 5651 5650 5649
5443 5448 5453 5459 5465 5471 5479 5487 5496 5505 5514 5524 5533 5543 5552 5561 5569 5577 5585 5592 5599 5604 5610 5615 5619 5623 5627 5630 5632 5635 5637 5639 5641 5643 5644 5645 5645 5646 5645 5645 5644 5643 5642
5451 5455 5461 5467 5473 5481 5488 5496 5504 5513 5522 5531 5540 5548 5556 5565 5573 5580 5587 5593 5599 5604 5609 5614 5618 5621 5624 5627 5629 5632 5634 5636 5637 5638 5639 5640 5640 5640 5639 5639 5638 5637 5635
5460 5465 5471 5477 5484 5491 5498 5505 5513 5521 5529 5538 5546 5554 5561 5569 5576 5583 5589 5595 5600 5604 5609 5612 5616 5619 5621 5624 5626 5628 5630 5631 5632 5633 5634 5634 5634 5634 5633 5632 5631 5630 5628